Weather History for Starkville, MS

Change the Weather History Date:

Saturday, May 11, 2013

  Actual Average Record
Temperature  
Mean Temperature 64 °F -  
Max Temperature 73 °F 79 °F 77 °F (2012)
Min Temperature 55 °F 57 °F 50 °F (2012)
Degree Days  
Heating Degree Days 1    
Growing Degree Days 14 (Base 50)    
Moisture  
Dew Point 61 °F    
Average Humidity 86    
Maximum Humidity 100    
Minimum Humidity 64    
Precipitation  
Precipitation 0.12 in - - ()
Sea Level Pressure  
Sea Level Pressure 29.99 in    
Wind  
Wind Speed 2 mph (NW)    
Max Wind Speed 9 mph    
Max Gust Speed 16 mph    
Visibility 9 miles    
Events Rain    
Averages and records for this station are not official NWS values.
T = Trace of Precipitation, MM = Missing Value Source: NWS Daily Summary

Daily Weather History Graph

Daily Weather History Graph

Search for Another Location

Airport:

Trip Planner

Search our weather history database for the weather conditions in past years. The results will help you decide how hot, cold, wet, or windy it might be!

Date:

Astronomy

May. 11, 2013 Rise Set
Actual Time 5:57 AM CDT 7:46 PM CDT
Civil Twilight 5:30 AM CDT 8:13 PM CDT
Nautical Twilight 4:58 AM CDT 8:46 PM CDT
Astronomical Twilight 4:23 AM CDT 9:20 PM CDT
Moon 7:07 AM CDT (5/11) 9:24 PM CDT (5/11)
Length of Visible Light 14h 42m
Length of Day
13h 48m
Waxing Crescent, 3% of the Moon is Illuminated
May 11
Waxing Crescent
May 17
First Quarter
May 24
Full
May 31
Last Quarter
Jun 8
New

Hourly Weather History & Observations

Time (CDT) Temp. Dew Point Humidity Pressure Visibility Wind Dir Wind Speed Gust Speed Precip Events Conditions
12:15 AM 62.6 °F 62.6 °F 100% 29.96 in 10.0 mi Calm Calm - N/A Rain Light Rain
12:35 AM 62.6 °F 62.6 °F 100% 29.96 in 10.0 mi Calm Calm - N/A   Mostly Cloudy
12:55 AM 62.6 °F 62.6 °F 100% 29.96 in 10.0 mi SW 3.5 mph - N/A   Scattered Clouds
1:15 AM 62.6 °F 60.8 °F 94% 29.96 in 10.0 mi SW 4.6 mph - N/A   Clear
1:35 AM 62.6 °F 60.8 °F 94% 29.96 in 10.0 mi Calm Calm - N/A   Clear
1:55 AM 62.6 °F 60.8 °F 94% 29.95 in 10.0 mi Calm Calm - N/A   Clear
2:15 AM 60.8 °F 60.8 °F 100% 29.95 in 10.0 mi Calm Calm - N/A   Clear
2:35 AM 60.8 °F 60.8 °F 100% 29.95 in 10.0 mi Calm Calm - N/A   Clear
2:55 AM 60.8 °F 60.8 °F 100% 29.95 in 10.0 mi Calm Calm - N/A   Clear
3:15 AM 59.0 °F 59.0 °F 100% 29.94 in 7.0 mi Calm Calm - N/A   Clear
3:35 AM 59.0 °F 59.0 °F 100% 29.94 in 2.5 mi Calm Calm - N/A   Scattered Clouds
3:55 AM 60.8 °F 59.0 °F 94% 29.94 in 7.0 mi Calm Calm - N/A   Mostly Cloudy
4:15 AM 60.8 °F 60.8 °F 100% 29.95 in 10.0 mi Calm Calm - N/A   Overcast
4:35 AM 60.8 °F 60.8 °F 100% 29.95 in 10.0 mi Calm Calm - N/A   Overcast
4:55 AM 60.8 °F 60.8 °F 100% 29.96 in 10.0 mi Calm Calm - N/A   Overcast
5:35 AM 60.8 °F 59.0 °F 94% 29.96 in 10.0 mi Calm Calm - 0.01 in   Clear
5:55 AM 60.8 °F 59.0 °F 94% 29.95 in 10.0 mi Calm Calm - 0.01 in   Clear
6:15 AM 59.0 °F 59.0 °F 100% 29.96 in 7.0 mi Calm Calm - N/A   Scattered Clouds
6:35 AM 60.8 °F 59.0 °F 94% 29.95 in 7.0 mi Calm Calm - N/A   Mostly Cloudy
6:55 AM 60.8 °F 60.8 °F 100% 29.97 in 7.0 mi Calm Calm - N/A   Overcast
7:15 AM 60.8 °F 60.8 °F 100% 29.98 in 10.0 mi Calm Calm - N/A   Overcast
7:35 AM 62.6 °F 60.8 °F 94% 29.99 in 10.0 mi West 3.5 mph - N/A   Overcast
7:55 AM 62.6 °F 60.8 °F 94% 29.99 in 10.0 mi West 3.5 mph - N/A   Overcast
8:15 AM 62.6 °F 60.8 °F 94% 29.99 in 10.0 mi West 4.6 mph - N/A   Overcast
8:35 AM 64.4 °F 62.6 °F 94% 29.99 in 10.0 mi NW 4.6 mph - N/A   Overcast
8:55 AM 64.4 °F 62.6 °F 94% 30.00 in 10.0 mi Calm Calm - N/A   Overcast
9:15 AM 66.2 °F 62.6 °F 88% 29.99 in 10.0 mi NW 5.8 mph - N/A   Mostly Cloudy
9:35 AM 68.0 °F 62.6 °F 83% 29.99 in 10.0 mi NNW 4.6 mph - N/A   Mostly Cloudy
9:55 AM 68.0 °F 62.6 °F 83% 29.99 in 10.0 mi NNW 5.8 mph - N/A   Overcast
10:15 AM 68.0 °F 62.6 °F 83% 30.00 in 10.0 mi WNW 3.5 mph - N/A   Overcast
10:35 AM 68.0 °F 62.6 °F 83% 30.00 in 10.0 mi NNW 4.6 mph - N/A   Overcast
10:55 AM 68.0 °F 62.6 °F 83% 30.00 in 10.0 mi NW 4.6 mph - N/A   Overcast
11:15 AM 68.0 °F 62.6 °F 83% 30.00 in 10.0 mi North 8.1 mph - N/A   Overcast
11:35 AM 68.0 °F 62.6 °F 83% 30.01 in 10.0 mi North 4.6 mph - N/A   Overcast
11:55 AM 68.0 °F 62.6 °F 83% 30.01 in 10.0 mi Calm Calm - N/A   Overcast
12:15 PM 69.8 °F 62.6 °F 78% 30.02 in 10.0 mi North 3.5 mph - N/A   Overcast
12:35 PM 69.8 °F 62.6 °F 78% 30.01 in 10.0 mi Calm Calm - N/A   Overcast
12:55 PM 69.8 °F 62.6 °F 78% 30.01 in 10.0 mi Calm Calm - N/A   Mostly Cloudy
1:35 PM 73.4 °F 62.6 °F 69% 30.00 in 10.0 mi Calm Calm - N/A   Mostly Cloudy
1:55 PM 73.4 °F 62.6 °F 69% 30.00 in 10.0 mi WNW 3.5 mph - N/A   Mostly Cloudy
2:15 PM 73.4 °F 62.6 °F 69% 30.00 in 10.0 mi Calm Calm - N/A   Mostly Cloudy
2:35 PM 71.6 °F 62.6 °F 73% 29.99 in 10.0 mi Calm Calm - N/A   Overcast
2:55 PM 73.4 °F 62.6 °F 69% 29.99 in 10.0 mi WNW 4.6 mph - N/A   Scattered Clouds
3:15 PM 68.0 °F 62.6 °F 83% 29.99 in 1.8 mi Calm Calm - 0.11 in Rain Light Rain
3:35 PM 71.6 °F 66.2 °F 83% 29.98 in 10.0 mi NW 4.6 mph - 0.11 in   Scattered Clouds
3:55 PM 73.4 °F 64.4 °F 73% 29.98 in 10.0 mi NW 4.6 mph - 0.11 in   Scattered Clouds
4:15 PM 73.4 °F 62.6 °F 69% 29.98 in 10.0 mi NW 6.9 mph 16.1 mph N/A   Scattered Clouds
4:35 PM 73.4 °F 62.6 °F 69% 29.97 in 10.0 mi North 6.9 mph - N/A   Scattered Clouds
4:55 PM 73.4 °F 60.8 °F 65% 29.97 in 10.0 mi NW 9.2 mph - N/A   Scattered Clouds
5:15 PM 73.4 °F 60.8 °F 65% 29.98 in 10.0 mi NNW 6.9 mph - N/A   Clear
5:35 PM 73.4 °F 60.8 °F 65% 29.98 in 10.0 mi NW 5.8 mph - N/A   Clear
5:55 PM 73.4 °F 60.8 °F 65% 29.98 in 10.0 mi NW 6.9 mph - N/A   Scattered Clouds
6:15 PM 71.6 °F 59.0 °F 64% 29.97 in 10.0 mi Calm Calm - N/A   Scattered Clouds
6:35 PM 71.6 °F 59.0 °F 64% 29.98 in 10.0 mi WNW 4.6 mph - N/A   Clear
6:55 PM 71.6 °F 59.0 °F 64% 29.98 in 10.0 mi NW 8.1 mph - N/A   Clear
7:15 PM 69.8 °F 59.0 °F 68% 29.99 in 10.0 mi NW 5.8 mph - N/A   Clear
7:35 PM 68.0 °F 59.0 °F 73% 30.00 in 10.0 mi Calm Calm - N/A   Clear
7:55 PM 66.2 °F 59.0 °F 78% 30.00 in 10.0 mi Calm Calm - N/A   Clear
8:15 PM 64.4 °F 59.0 °F 83% 30.01 in 10.0 mi Calm Calm - N/A   Clear
8:35 PM 62.6 °F 59.0 °F 88% 30.02 in 10.0 mi West 3.5 mph - N/A   Clear
8:55 PM 60.8 °F 59.0 °F 94% 30.03 in 10.0 mi Calm Calm - N/A   Clear
9:15 PM 60.8 °F 57.2 °F 88% 30.04 in 10.0 mi Calm Calm - N/A   Clear
9:35 PM 59.0 °F 57.2 °F 94% 30.05 in 10.0 mi Calm Calm - N/A   Clear
9:55 PM 59.0 °F 57.2 °F 94% 30.06 in 7.0 mi Calm Calm - N/A   Clear
10:15 PM 57.2 °F 55.4 °F 94% 30.06 in 7.0 mi Calm Calm - N/A   Clear
10:35 PM 55.4 °F 55.4 °F 100% 30.06 in 7.0 mi Calm Calm - N/A   Clear
10:55 PM 55.4 °F 53.6 °F 94% 30.07 in 5.0 mi Calm Calm - N/A   Clear
11:15 PM 55.4 °F 53.6 °F 94% 30.07 in 5.0 mi Calm Calm - N/A   Clear
11:35 PM 55.4 °F 53.6 °F 94% 30.06 in 5.0 mi Calm Calm - N/A   Clear